AEHF-3 (USA 246)

Last updated on Nov. 18, 2019, 4:21 a.m. UTC

1 39256U 13050A   19321.48499181 -.00000177  00000-0  00000+0 0  9999
2 39256   0.8758 324.8146 0002656 353.2033  64.9807  1.00268973 22588
UTC
Height (km)
Latitude
Longitude
Inclination
Orbital Period
UTC large
Height (km)
Speed (km/s)
/
Latitude / Longitude
Inclination (degrees)
Orbital Period (minutes)
Azimuth
Elevation
Range (km)
Doppler Factor
iOS Compass Heading
iOS Angle

Next 30 passes for location: Hong Kong

Rise time Rise Azimuth (degrees) Set time Set Azimuth (degrees) Duration Max altitude (degrees)

No matching passes for this satellites